Tracking 19794 objects as of 22-Jul-2019
HD Live streaming from Space Station
objects crossing your sky now

NOAA 10 DEB


NOAA 10 DEB is no longer on orbit


NORAD ID: 37631
Int'l Code: 1986-073G
Perigee: N/A
Apogee: N/A
Inclination: N/A
Period: N/A
Semi major axis: N/A
RCS: N/A
Launch date: September 17, 1986
Source: United States (US)
Launch site: AIR FORCE WESTERN TEST RANGE (AFWTR)
Decay date: 2011-11-04

Note: This is SATELLITE DEBRIS
aabbcc
Your satellite tracking list
Your tracking list is empty




NASA's NSSDC Master Catalog

Two Line Element Set (TLE):
1 37631U 86073G   11307.08163792 +.09113016 +00000-0 +84690-1 0  9991
2 37631 099.1142 000.7821 0039854 004.0862 112.9019 15.61244525298215
Source of the keplerian elements: AFSPC